Location: Karcze
(52.0945°N, 22.4786°E)
Time: 12:51:16
(UTC+00:00)

Cosmos 2322 Rocket - Pass Details

Date: 14 July 2020
Orbit: 832 x 851 km, 71.0° (Epoch: 07 August)

Event Time Altitude Azimuth Distance (km) Brightness Sun altitude
Rises 00:59:40 0° 330° (NNW) 3,405 5.7 -9.9°
Reaches altitude 10° 01:02:17 10° 338° (NNW) 2,470 5.1 -9.7°
Maximum altitude 01:07:36 40° 47° (NE) 1,224 3.8 -9.2°
Drops below altitude 10° 01:12:56 10° 117° (ESE) 2,469 4.8 -8.7°
Sets 01:15:32 0° 125° (SE) 3,404 5.4 -8.5°
